Location: Newark
(48.8833°N, 0.9236°W)
Time: 20:48:22
(UTC+00:00)

Tiros 1 despin weight - Pass Details

Date: 17 November 2019
Orbit: 594 x 642 km, 48.2° (Epoch: 13 December)

Event Time Altitude Azimuth Distance (km) Brightness Sun altitude
Rises 13:40:46 0° 214° (SSW) 2,817 ? 17.7°
Reaches altitude 10° 13:43:20 10° 201° (SSW) 1,921 ? 17.5°
Maximum altitude 13:46:56 25° 146° (SE) 1,216 ? 17.2°
Drops below altitude 10° 13:50:34 10° 91° (E) 1,941 ? 16.9°
Sets 13:53:10 0° 78° (ENE) 2,855 ? 16.7°
